[[{"header":{"parameterUnit":"m.s-1","parameterCategory":2,"la1":30.2992,"la2":30.254,"lo1":-89.0895,"lo2":-89.0443,"dy":0.0025,"dx":0.0025,"nx":19,"ny":19,"refTime":"2026-03-31T09:00:00:Z","depth":"0","parameterNumber":2,"parameterNumberName":"U-component_of_CURRENTS"},"data":[0,0,0,-0.1205,-0.1205,-0.1211,-0.1211,-0.1167,-0.1167,0,0,0,0,0,0,0,0,0,0,0,-0.1197,-0.1197,-0.1205,-0.1205,-0.1211,-0.1211,-0.1167,-0.1167,0,0,0,0,0,0,0,0,0,0,0,-0.1197,-0.1197,-0.1197,-0.1205,-0.1211,-0.1211,-0.1167,-0.1174,0,0,0,0,0,0,0,0,0,0,-0.1174,-0.1179,-0.1197,-0.1197,-0.1205,-0.1211,-0.1211,-0.1175,-0.1173,-0.1152,0,-0.1156,0,-0.1165,-0.1163,-0.1163,0,0,0,-0.1197,-0.118,-0.1182,-0.1197,-0.1206,-0.1211,-0.1206,-0.1174,-0.1173,-0.115,-0.1155,-0.1154,-0.1164,-0.1163,-0.1163,-0.1161,-0.1161,0,0,-0.1197,-0.1196,-0.1183,-0.1181,-0.1209,-0.1206,-0.1206,-0.1174,-0.1172,-0.1155,-0.1153,-0.1163,-0.1163,-0.1162,-0.116,-0.1161,0,0,0,-0.1201,-0.1196,-0.1199,-0.1182,-0.119,-0.1206,-0.1207,-0.1173,-0.1174,-0.1153,-0.1163,-0.1162,-0.1162,-0.116,-0.116,-0.1205,0,0,0,-0.1201,-0.1199,-0.1199,-0.1198,-0.1191,-0.119,-0.1207,-0.1176,-0.1174,-0.1163,-0.1162,-0.1161,-0.1159,-0.116,-0.1203,-0.1202,0,0,0,-0.1196,-0.1199,-0.12,-0.1198,-0.1205,-0.1191,-0.119,-0.1176,-0.118,-0.1163,-0.1161,-0.1159,-0.116,-0.1201,-0.12,-0.1242,0,0,0,-0.1194,-0.1212,-0.12,-0.1225,-0.1205,-0.1232,-0.1191,-0.1203,-0.1195,-0.1162,-0.1159,-0.116,-0.12,-0.1198,-0.124,-0.1326,-0.1342,0,0,-0.122,-0.1215,-0.1232,-0.1222,-0.1253,-0.1231,-0.1258,-0.1227,-0.1198,-0.1164,-0.1164,-0.1204,-0.12,-0.1241,-0.1375,-0.139,0,0,0,-0.1243,-0.1248,-0.1259,-0.127,-0.1283,-0.1282,-0.1266,-0.1252,-0.1229,-0.1198,-0.1208,-0.1204,-0.1229,-0.1278,-0.1289,-0.128,-0.1164,-0.1164,-0.1164,-0.1269,-0.1275,-0.1294,-0.1299,-0.1313,-0.1317,-0.1314,-0.1287,-0.1266,-0.1265,-0.1245,-0.1309,-0.1362,-0.1372,-0.1361,-0.126,-0.126,-0.1261,-0.1261,-0.1294,-0.1297,-0.13,-0.1316,-0.1319,-0.1331,-0.1331,-0.1322,-0.1321,-0.1287,-0.1311,-0.1327,-0.1387,-0.1371,-0.1264,-0.1263,-0.1263,-0.1263,-0.1262,-0.1297,-0.1295,-0.13,-0.1305,-0.1311,-0.1322,-0.1351,-0.1341,-0.1346,-0.1364,-0.1431,-0.1431,-0.1413,-0.1392,-0.1393,-0.1393,-0.1393,-0.1393,-0.1393,-0.129,-0.1295,-0.1283,-0.1288,-0.1281,-0.1302,-0.1352,-0.1403,-0.1473,-0.1475,-0.1476,-0.1443,-0.1349,-0.1339,-0.1396,-0.1396,-0.1395,-0.1395,-0.1395,-0.1282,-0.1274,-0.1258,-0.1247,-0.1252,-0.1277,-0.1362,-0.1529,-0.159,-0.1649,-0.1601,-0.1543,-0.1535,-0.1526,-0.1521,-0.1621,-0.1621,-0.1621,-0.1621,-0.1264,-0.1263,-0.1222,-0.1203,-0.1225,-0.1263,-0.1401,-0.1543,-0.1664,-0.1683,-0.1687,-0.1678,-0.1669,-0.1666,-0.1654,-0.165,-0.1781,-0.1781,-0.1781,-0.1243,-0.1233,-0.1192,-0.1178,-0.1198,-0.1271,-0.1363,-0.1512,-0.1704,-0.1781,-0.1656,-0.165,-0.1625,-0.1611,-0.1595,-0.1579,-0.1566,0,0]},{"header":{"parameterUnit":"m.s-1","parameterCategory":2,"la1":30.2992,"la2":30.254,"lo1":-89.0895,"lo2":-89.0443,"dy":0.0025,"dx":0.0025,"nx":19,"ny":19,"refTime":"2026-03-31T09:00:00:Z","depth":"0","parameterNumber":3,"parameterNumberName":"V-component_of_CURRENTS"},"data":[0,0,0,-0.0078,-0.0077,-0.0061,-0.0061,-0.0033,-0.0033,0,0,0,0,0,0,0,0,0,0,0,-0.0085,-0.0085,-0.0078,-0.0077,-0.0061,-0.0061,-0.0033,-0.0033,0,0,0,0,0,0,0,0,0,0,0,-0.0085,-0.0085,-0.0085,-0.0077,-0.0061,-0.0061,-0.0033,-0.0047,0,0,0,0,0,0,0,0,0,0,-0.0064,-0.0076,-0.0085,-0.0085,-0.0077,-0.0061,-0.0061,-0.0048,-0.0046,-0.0039,0,-0.0038,0,-0.0034,-0.0031,-0.0031,0,0,0,-0.0076,-0.0077,-0.0069,-0.0085,-0.0077,-0.0061,-0.0068,-0.0047,-0.0045,-0.0037,-0.0038,-0.0037,-0.0034,-0.0031,-0.0031,-0.0039,-0.0039,0,0,-0.0077,-0.0085,-0.007,-0.0068,-0.0075,-0.0069,-0.0068,-0.0046,-0.0047,-0.0038,-0.0036,-0.0033,-0.0031,-0.003,-0.0039,-0.0039,0,0,0,-0.0081,-0.0086,-0.0078,-0.0069,-0.0066,-0.0068,-0.0067,-0.0048,-0.0045,-0.0036,-0.0033,-0.003,-0.003,-0.0038,-0.0039,-0.006,0,0,0,-0.0081,-0.0088,-0.0078,-0.0083,-0.0067,-0.0059,-0.007,-0.0046,-0.0043,-0.0033,-0.003,-0.003,-0.0038,-0.0039,-0.0058,-0.0059,0,0,0,-0.0086,-0.0088,-0.0086,-0.0084,-0.0076,-0.0059,-0.0054,-0.0045,-0.0042,-0.0031,-0.003,-0.0038,-0.0039,-0.0057,-0.0057,-0.002,0,0,0,-0.0094,-0.0114,-0.0086,-0.011,-0.0076,-0.0091,-0.0054,-0.0059,-0.0054,-0.003,-0.0038,-0.0039,-0.0057,-0.0056,-0.002,-0.0023,-0.0024,0,0,-0.0129,-0.0118,-0.0134,-0.0109,-0.0136,-0.0093,-0.0113,-0.0085,-0.0061,-0.0044,-0.0044,-0.0059,-0.0057,-0.002,-0.0065,-0.0064,0,0,0,-0.0152,-0.0163,-0.0167,-0.0172,-0.0165,-0.0149,-0.0125,-0.0104,-0.0079,-0.0061,-0.0068,-0.0066,-0.0041,-0.0044,-0.0044,0.0125,-0.0042,-0.0042,-0.0042,-0.0203,-0.0201,-0.0232,-0.0228,-0.0227,-0.0192,-0.0167,-0.0131,-0.0114,-0.0105,-0.009,-0.0086,-0.0092,-0.0091,0.0081,-0.0103,-0.0103,-0.0103,-0.0103,-0.0265,-0.0284,-0.0276,-0.0305,-0.0275,-0.0276,-0.021,-0.0175,-0.0115,-0.0117,-0.0091,-0.0076,-0.0092,0.0092,-0.0105,-0.0104,-0.0104,-0.0104,-0.0104,-0.03,-0.031,-0.0324,-0.0354,-0.0353,-0.0318,-0.0284,-0.0212,-0.0135,-0.0106,-0.0076,-0.0076,0.0097,-0.0087,-0.0087,-0.0087,-0.0087,-0.0087,-0.0087,-0.0327,-0.0343,-0.0384,-0.0404,-0.0421,-0.0406,-0.0317,-0.0259,-0.015,-0.0091,-0.009,0.0115,-0.008,-0.0068,-0.0084,-0.0085,-0.0085,-0.0085,-0.0085,-0.0365,-0.0376,-0.0443,-0.0473,-0.0514,-0.0539,-0.0438,-0.0311,-0.0203,-0.0149,0.0146,-0.0068,-0.0049,-0.0049,-0.0036,-0.0043,-0.0043,-0.0043,-0.0043,-0.0387,-0.04,-0.0504,-0.0574,-0.0616,-0.0607,-0.0587,-0.0409,-0.0044,0.0167,0.026,0.0267,0.0258,0.0296,0.0288,0.0309,0.039,0.0391,0.0392,-0.0411,-0.0448,-0.0534,-0.0619,-0.0681,-0.0693,-0.0698,-0.0491,0.011,0.0429,0.0502,0.0483,0.0512,0.0484,0.0555,0.053,0.0566,0,0]}],[{"header":{"parameterUnit":"m.s-1","parameterCategory":2,"la1":30.2992,"la2":30.254,"lo1":-89.0895,"lo2":-89.0443,"dy":0.0025,"dx":0.0025,"nx":19,"ny":19,"refTime":"2026-03-31T09:00:00:Z","depth":"2","parameterNumber":2,"parameterNumberName":"U-component_of_CURRENTS"},"data":[0,0,0,-0.1077,-0.1078,-0.1092,-0.1092,-0.1052,-0.1052,0,0,0,0,0,0,0,0,0,0,0,-0.1067,-0.1067,-0.1077,-0.1078,-0.1092,-0.1092,-0.1052,-0.1052,0,0,0,0,0,0,0,0,0,0,0,-0.1066,-0.1067,-0.1067,-0.1078,-0.1092,-0.1092,-0.1052,-0.1054,0,0,0,0,0,0,0,0,0,0,-0.1047,-0.1049,-0.1067,-0.1067,-0.1078,-0.1092,-0.1092,-0.1055,-0.1054,-0.1032,0,-0.1037,0,-0.1048,-0.1048,-0.1048,0,0,0,-0.107,-0.105,-0.1055,-0.1067,-0.1078,-0.1092,-0.1083,-0.1055,-0.1054,-0.103,-0.1037,-0.1036,-0.1047,-0.1048,-0.1048,-0.1048,-0.1048,0,0,-0.1069,-0.1065,-0.1056,-0.1055,-0.1085,-0.1083,-0.1084,-0.1055,-0.1053,-0.1037,-0.1036,-0.1047,-0.1048,-0.1047,-0.1047,-0.1048,0,0,0,-0.1072,-0.1065,-0.1072,-0.1056,-0.1066,-0.1083,-0.1084,-0.1054,-0.1057,-0.1035,-0.1046,-0.1047,-0.1047,-0.1047,-0.1047,-0.1096,0,0,0,-0.1071,-0.1068,-0.1071,-0.1069,-0.1067,-0.1069,-0.1084,-0.1058,-0.1056,-0.1047,-0.1047,-0.1046,-0.1047,-0.1047,-0.1093,-0.1095,0,0,0,-0.1065,-0.1067,-0.107,-0.1069,-0.108,-0.107,-0.1071,-0.1058,-0.1063,-0.1048,-0.1046,-0.1046,-0.1047,-0.1091,-0.1092,-0.1131,0,0,0,-0.1059,-0.1079,-0.107,-0.1098,-0.108,-0.1112,-0.1071,-0.1086,-0.108,-0.1047,-0.1047,-0.1047,-0.1091,-0.1091,-0.113,-0.119,-0.1204,0,0,-0.1085,-0.1082,-0.1101,-0.1094,-0.113,-0.1109,-0.1139,-0.111,-0.1083,-0.1049,-0.105,-0.1094,-0.1092,-0.1131,-0.1239,-0.1252,0,0,0,-0.1111,-0.1119,-0.1131,-0.1146,-0.1162,-0.1165,-0.115,-0.1136,-0.1116,-0.1084,-0.1098,-0.1095,-0.1118,-0.1151,-0.1161,-0.1051,-0.1051,-0.1051,-0.1051,-0.1129,-0.1142,-0.1166,-0.118,-0.1197,-0.1203,-0.1201,-0.1175,-0.1153,-0.1154,-0.1138,-0.1202,-0.1238,-0.1246,-0.1152,-0.1152,-0.1153,-0.1153,-0.1153,-0.1156,-0.1162,-0.1177,-0.1203,-0.1209,-0.1224,-0.1224,-0.1215,-0.1214,-0.1181,-0.1203,-0.1204,-0.126,-0.1157,-0.1156,-0.1155,-0.1155,-0.1155,-0.1155,-0.1151,-0.1152,-0.117,-0.1193,-0.1206,-0.1221,-0.1253,-0.1242,-0.1243,-0.1261,-0.1308,-0.1308,-0.1225,-0.1288,-0.1289,-0.1289,-0.1289,-0.1289,-0.1289,-0.1127,-0.1146,-0.1153,-0.1176,-0.1178,-0.1208,-0.126,-0.1308,-0.1362,-0.1353,-0.1354,-0.1247,-0.1243,-0.1233,-0.1292,-0.1292,-0.1291,-0.1291,-0.1291,-0.1107,-0.1113,-0.1122,-0.1126,-0.1155,-0.1178,-0.1265,-0.141,-0.1467,-0.151,-0.1412,-0.1408,-0.1395,-0.1387,-0.1381,-0.1475,-0.1475,-0.1475,-0.1475,-0.1077,-0.1087,-0.1083,-0.1089,-0.1128,-0.1163,-0.1273,-0.1383,-0.1467,-0.1449,-0.1449,-0.1428,-0.1422,-0.1408,-0.14,-0.1391,-0.1488,-0.1488,-0.1487,-0.1051,-0.1056,-0.1038,-0.1061,-0.1101,-0.1162,-0.1212,-0.1268,-0.1371,-0.148,-0.1368,-0.1492,-0.1461,-0.1452,-0.1429,-0.1416,-0.1402,0,0]},{"header":{"parameterUnit":"m.s-1","parameterCategory":2,"la1":30.2992,"la2":30.254,"lo1":-89.0895,"lo2":-89.0443,"dy":0.0025,"dx":0.0025,"nx":19,"ny":19,"refTime":"2026-03-31T09:00:00:Z","depth":"2","parameterNumber":3,"parameterNumberName":"V-component_of_CURRENTS"},"data":[0,0,0,-0.0171,-0.0171,-0.0151,-0.015,-0.0121,-0.0121,0,0,0,0,0,0,0,0,0,0,0,-0.0179,-0.0179,-0.0171,-0.0171,-0.0151,-0.015,-0.0121,-0.0121,0,0,0,0,0,0,0,0,0,0,0,-0.0179,-0.0179,-0.0179,-0.0171,-0.0151,-0.015,-0.0122,-0.0137,0,0,0,0,0,0,0,0,0,0,-0.0157,-0.0169,-0.0179,-0.0179,-0.017,-0.0151,-0.015,-0.0138,-0.0136,-0.013,0,-0.0127,0,-0.0123,-0.0119,-0.0119,0,0,0,-0.017,-0.0171,-0.0161,-0.0179,-0.017,-0.0151,-0.0159,-0.0137,-0.0135,-0.0127,-0.0127,-0.0126,-0.0122,-0.0119,-0.0119,-0.0117,-0.0117,0,0,-0.0171,-0.0179,-0.0163,-0.016,-0.0166,-0.016,-0.0159,-0.0136,-0.0137,-0.0127,-0.0125,-0.0122,-0.0119,-0.0119,-0.0117,-0.0117,0,0,0,-0.0175,-0.018,-0.0171,-0.0161,-0.0157,-0.016,-0.0158,-0.0138,-0.0134,-0.0125,-0.0122,-0.0119,-0.0118,-0.0116,-0.0117,-0.0131,0,0,0,-0.0175,-0.0182,-0.0171,-0.0176,-0.0158,-0.0149,-0.016,-0.0135,-0.0132,-0.0122,-0.0119,-0.0118,-0.0116,-0.0117,-0.013,-0.0132,0,0,0,-0.018,-0.0182,-0.0179,-0.0177,-0.0167,-0.0149,-0.0144,-0.0135,-0.013,-0.0119,-0.0118,-0.0116,-0.0117,-0.013,-0.0131,-0.0094,0,0,0,-0.0189,-0.0207,-0.0179,-0.02,-0.0167,-0.0177,-0.0144,-0.0146,-0.014,-0.0118,-0.0116,-0.0117,-0.0129,-0.013,-0.0094,-0.0101,-0.0102,0,0,-0.0222,-0.0211,-0.0225,-0.02,-0.0221,-0.018,-0.0192,-0.0166,-0.0143,-0.0123,-0.0123,-0.0131,-0.0131,-0.0094,-0.0129,-0.0128,0,0,0,-0.0242,-0.0252,-0.0254,-0.0256,-0.0246,-0.0226,-0.0201,-0.0177,-0.0149,-0.0141,-0.0136,-0.0136,-0.0112,-0.0117,-0.0117,-0.0119,-0.0119,-0.0119,-0.0119,-0.0293,-0.0288,-0.0315,-0.0306,-0.03,-0.026,-0.0232,-0.0193,-0.0178,-0.0164,-0.0152,-0.0141,-0.015,-0.0149,-0.016,-0.016,-0.016,-0.016,-0.016,-0.0352,-0.0369,-0.0355,-0.0379,-0.0343,-0.0338,-0.0263,-0.0228,-0.0164,-0.0167,-0.0143,-0.0139,-0.0149,-0.0161,-0.0161,-0.0161,-0.0161,-0.0161,-0.0161,-0.0389,-0.0397,-0.0407,-0.0428,-0.0419,-0.0376,-0.0337,-0.026,-0.0181,-0.0152,-0.013,-0.013,-0.0127,-0.0135,-0.0135,-0.0135,-0.0135,-0.0135,-0.0134,-0.042,-0.0431,-0.0467,-0.0478,-0.0491,-0.0468,-0.0371,-0.0311,-0.02,-0.0141,-0.014,-0.0132,-0.0133,-0.0125,-0.0132,-0.0133,-0.0133,-0.0133,-0.0133,-0.0459,-0.0469,-0.0529,-0.0555,-0.0585,-0.0601,-0.0493,-0.0359,-0.0254,-0.0198,-0.0118,-0.012,-0.0105,-0.0106,-0.0097,-0.0097,-0.0097,-0.0097,-0.0097,-0.0486,-0.0496,-0.0593,-0.0655,-0.069,-0.0669,-0.0633,-0.0451,-0.0242,-0.0122,-0.0121,-0.0147,-0.0148,-0.0137,-0.0137,-0.0129,-0.0136,-0.0137,-0.0137,-0.051,-0.0546,-0.0626,-0.0702,-0.0756,-0.0753,-0.0733,-0.0521,-0.0206,-0.0139,-0.0133,-0.0098,-0.0134,-0.0136,-0.0118,-0.0119,-0.0105,0,0]}],[{"header":{"parameterUnit":"m.s-1","parameterCategory":2,"la1":30.2992,"la2":30.254,"lo1":-89.0895,"lo2":-89.0443,"dy":0.0025,"dx":0.0025,"nx":19,"ny":19,"refTime":"2026-03-31T09:00:00:Z","depth":"4","parameterNumber":2,"parameterNumberName":"U-component_of_CURRENTS"},"data":[0,0,0,-0.057,-0.0571,-0.0732,-0.0733,-0.0822,-0.0822,0,0,0,0,0,0,0,0,0,0,0,-0.0534,-0.0534,-0.057,-0.0571,-0.0732,-0.0733,-0.0822,-0.0822,0,0,0,0,0,0,0,0,0,0,0,-0.0534,-0.0534,-0.0534,-0.0572,-0.0731,-0.0733,-0.0822,-0.0743,0,0,0,0,0,0,0,0,0,0,-0.0608,-0.0574,-0.0534,-0.0534,-0.0572,-0.0731,-0.0733,-0.0741,-0.0748,-0.0699,0,-0.0706,0,-0.0728,-0.082,-0.082,0,0,0,-0.0627,-0.0569,-0.0593,-0.0534,-0.0573,-0.0731,-0.0675,-0.0747,-0.0754,-0.0707,-0.0707,-0.0711,-0.073,-0.082,-0.082,-0.0784,-0.0784,0,0,-0.0618,-0.0585,-0.0589,-0.0597,-0.0586,-0.0669,-0.0679,-0.0753,-0.0755,-0.0708,-0.0713,-0.0731,-0.082,-0.082,-0.0784,-0.0784,0,0,0,-0.0555,-0.0578,-0.0606,-0.0593,-0.0611,-0.0673,-0.0684,-0.0754,-0.0757,-0.0714,-0.0732,-0.082,-0.0819,-0.0784,-0.0784,-0.0864,0,0,0,-0.0553,-0.0537,-0.0601,-0.0587,-0.0609,-0.0698,-0.0683,-0.0754,-0.0762,-0.0732,-0.082,-0.0819,-0.0784,-0.0784,-0.0862,-0.0913,0,0,0,-0.0531,-0.0535,-0.0543,-0.0584,-0.0624,-0.0698,-0.0711,-0.0759,-0.0769,-0.082,-0.0819,-0.0785,-0.0784,-0.0861,-0.0909,-0.0973,0,0,0,-0.0511,-0.0521,-0.0542,-0.0562,-0.0622,-0.0714,-0.0712,-0.0788,-0.0836,-0.082,-0.0784,-0.0784,-0.086,-0.0907,-0.097,-0.0839,0,0,0,-0.0514,-0.0521,-0.0534,-0.0555,-0.0605,-0.0698,-0.0792,-0.0843,-0.0803,-0.0761,-0.0763,-0.0863,-0.0909,-0.0972,-0.081,0,0,0,0,-0.0529,-0.0539,-0.0556,-0.0592,-0.0656,-0.0784,-0.0842,-0.0844,-0.0848,-0.0816,-0.083,-0.0856,-0.0894,-0.0807,-0.0782,-0.0782,-0.0782,-0.0782,-0.0782,-0.0486,-0.053,-0.0565,-0.0641,-0.072,-0.0841,-0.0918,-0.0927,-0.0876,-0.0867,-0.0897,-0.0966,-0.0871,-0.0858,-0.0859,-0.0859,-0.0859,-0.086,-0.086,-0.0489,-0.0505,-0.0597,-0.0655,-0.0778,-0.0898,-0.0995,-0.0996,-0.1005,-0.0934,-0.0967,-0.0864,-0.0867,-0.0866,-0.0864,-0.0864,-0.0863,-0.0863,-0.0862,-0.0443,-0.0462,-0.0518,-0.0633,-0.0793,-0.0947,-0.1049,-0.1108,-0.1082,-0.1112,-0.1015,-0.1028,-0.1053,-0.1128,-0.1128,-0.1129,-0.1129,-0.1129,-0.113,-0.0365,-0.0428,-0.0484,-0.0621,-0.0719,-0.0879,-0.1077,-0.1088,-0.1139,-0.1098,-0.1141,-0.1057,-0.1048,-0.1067,-0.1137,-0.1136,-0.1135,-0.1134,-0.1134,-0.0305,-0.034,-0.0412,-0.0485,-0.0675,-0.0782,-0.097,-0.1071,-0.1087,-0.108,-0.1089,-0.1089,-0.1058,-0.105,-0.1067,-0.1141,-0.1139,-0.1138,0,-0.0243,-0.0273,-0.0361,-0.0459,-0.055,-0.0723,-0.0761,-0.0834,-0.0953,-0.0969,-0.1008,-0.1013,-0.1014,-0.0967,-0.0958,-0.097,0,0,0,-0.0207,-0.0237,-0.0278,-0.0392,-0.0513,-0.0644,-0.0769,-0.08,-0.0979,-0.0959,-0.1104,-0.1113,-0.0976,-0.116,-0.1113,-0.1102,-0.113,0,0]},{"header":{"parameterUnit":"m.s-1","parameterCategory":2,"la1":30.2992,"la2":30.254,"lo1":-89.0895,"lo2":-89.0443,"dy":0.0025,"dx":0.0025,"nx":19,"ny":19,"refTime":"2026-03-31T09:00:00:Z","depth":"4","parameterNumber":3,"parameterNumberName":"V-component_of_CURRENTS"},"data":[0,0,0,0.0086,0.0087,0.0174,0.0175,0.035,0.0351,0,0,0,0,0,0,0,0,0,0,0,0.0074,0.0074,0.0086,0.0087,0.0174,0.0175,0.035,0.0351,0,0,0,0,0,0,0,0,0,0,0,0.0074,0.0074,0.0074,0.0087,0.0174,0.0175,0.0349,0.0277,0,0,0,0,0,0,0,0,0,0,0.0189,0.0158,0.0074,0.0074,0.0087,0.0173,0.0175,0.0274,0.0282,0.0317,0,0.0316,0,0.0314,0.0361,0.0361,0,0,0,0.0126,0.0151,0.016,0.0074,0.0088,0.0173,0.0146,0.0278,0.0287,0.0328,0.0318,0.0324,0.0317,0.0362,0.0362,0.0511,0.0512,0,0,0.0121,0.0111,0.0153,0.0165,0.0093,0.0143,0.0148,0.0283,0.0296,0.0318,0.0327,0.032,0.0363,0.0364,0.0511,0.0512,0,0,0,0.0081,0.0108,0.0113,0.0159,0.0156,0.0144,0.015,0.0291,0.0287,0.0329,0.0322,0.0364,0.0365,0.051,0.0511,0.0441,0,0,0,0.008,0.0081,0.0111,0.0109,0.0152,0.0215,0.0155,0.0279,0.0293,0.0321,0.0364,0.0367,0.051,0.0511,0.0442,0.0375,0,0,0,0.0073,0.0081,0.0082,0.0107,0.0123,0.0212,0.0219,0.0283,0.0287,0.0361,0.0367,0.0509,0.0511,0.0442,0.0378,0.0318,0,0,0,0.0074,0.0067,0.0082,0.0082,0.0122,0.0196,0.0218,0.0299,0.0365,0.0364,0.051,0.0511,0.0443,0.038,0.032,0.0256,0,0,0,0.0062,0.0066,0.0066,0.0079,0.009,0.0187,0.0273,0.0364,0.0396,0.0475,0.0479,0.0442,0.0378,0.0318,0.0337,0,0,0,0,0.006,0.0056,0.0065,0.0075,0.0135,0.0219,0.0332,0.0383,0.0446,0.043,0.0489,0.0451,0.0415,0.0389,0.0518,0.0517,0.0517,0.0517,0.0517,0.0044,0.0051,0.0048,0.0079,0.014,0.0272,0.0339,0.0433,0.0475,0.0493,0.043,0.0383,0.0361,0.0493,0.0493,0.0492,0.0492,0.0492,0.0492,0.0012,0.0005,0.0033,0.0029,0.0117,0.0216,0.0349,0.0389,0.0397,0.0443,0.0411,0.0364,0.0486,0.0487,0.0488,0.0489,0.0489,0.049,0.049,-0.0006,-0.0012,-0.0018,-0.0015,0.0041,0.0156,0.0177,0.0252,0.03,0.0266,0.0214,0.0323,0.0284,0.023,0.023,0.0229,0.0229,0.0228,0.0228,-0.0026,-0.0034,-0.0071,-0.0063,-0.0063,-0.0034,0.0047,0.0057,0.0115,0.0107,0.0209,0.0294,0.0303,0.027,0.022,0.0221,0.0222,0.0223,0.0224,-0.0065,-0.007,-0.0125,-0.0152,-0.018,-0.0165,-0.011,-0.0084,-0.0109,-0.0106,0.004,0.0051,0.0055,0.0069,0.0028,-0.0097,-0.0098,-0.0099,0,-0.0091,-0.0098,-0.0186,-0.0248,-0.0288,-0.0243,-0.0273,-0.0239,-0.0166,-0.0175,-0.0101,0.0064,0.0073,0.0081,0.0091,0.0045,0,0,0,-0.013,-0.0145,-0.0221,-0.0283,-0.0337,-0.0314,-0.0277,-0.028,-0.0178,-0.019,-0.0127,-0.012,0.0102,0.0195,0.0227,0.0238,0.0186,0,0]}]]